Home   Weather   Fredrikstad   Past weeks

Flag for Norway Past Weather in Fredrikstad, Norway — Yesterday and Last 2 Weeks

Now
45 °F

Sunny.


Feels Like: 40 °F
Forecast: 37 / 42 °F
Wind: 9 mph from Southwest

Location: Rygge

Current Time: Feb 19, 2017 at 3:33:29 pm

Latest Report: Feb 19, 2017 at 2:50 pm


Visibility: 10 mi

Pressure: 29.59 "Hg

Humidity: 76%

Dew Point: 37 °F

Location of FredrikstadLocation

Past Weather in Fredrikstad — Graph

°F

Fredrikstad Temperature Yesterday

Maximum temperature yesterday: 36 °F (at 6:20 pm)
Minimum temperature yesterday: 23 °F (at 4:20 am)
Average temperature yesterday: 30 °F

High & Low Weather Summary for the Past Weeks

 TemperatureHumidityPressure
High45 °F (Feb 19, 2:20 pm)100% (Feb 4, 7:20 pm)30.86 "Hg (Feb 4, 7:20 pm)
Low12 °F (Feb 12, 8:20 am)63% (Feb 7, 2:50 pm)29.59 "Hg (Feb 19, 1:50 pm)
Average27 °F88%30.43 "Hg
* Reported Feb 4 2:20 pm — Feb 19 2:20 pm, Fredrikstad, Weather by CustomWeather, © 2017

Note: Actual official high and low records may vary slightly from our data, if they occured in-between our weather recording intervals... More about our weather records

Advertising

Fredrikstad Weather History for the Previous 24 Hours

Scroll right to see more
 ConditionsComfort  
Time TempWeatherWind HumidityBarometerVisibility
2:20 pm
Sun, Feb 19
45 °FSunny.10 mph76%29.59 "Hg10 mi
1:50 pm43 °FSunny.12 mph81%29.59 "Hg10 mi
1:20 pm43 °FSunny.10 mph81%29.62 "Hg10 mi
12:50 pm43 °FSunny.9 mph81%29.62 "Hg10 mi
12:20 pm43 °FSunny.8 mph81%29.62 "Hg10 mi
11:50 am43 °FSunny.9 mph81%29.62 "Hg10 mi
10:50 am41 °FFog.8 mph87%29.62 "HgN/A
10:20 am39 °FSleet. Fog.8 mph93%29.62 "HgN/A
9:50 am37 °FPartly sunny.8 mph100%29.62 "HgN/A
9:20 am37 °FScattered clouds.9 mph100%29.62 "HgN/A
8:50 am37 °FBroken clouds.6 mph93%29.62 "HgN/A
8:20 am36 °FBroken clouds.8 mph100%29.62 "HgN/A
7:50 am36 °FOvercast.8 mph100%29.62 "HgN/A
7:20 am36 °FPassing clouds.7 mph100%29.62 "HgN/A
6:50 am36 °FPassing clouds.7 mph100%29.62 "HgN/A
6:20 am36 °FPassing clouds.9 mph100%29.62 "HgN/A
5:20 am36 °FPassing clouds.8 mph100%29.62 "HgN/A
4:50 am36 °FPassing clouds.8 mph100%29.62 "HgN/A
4:20 am36 °FPassing clouds.5 mph100%29.65 "HgN/A
3:50 am36 °FPassing clouds.8 mph100%29.62 "Hg6 mi
2:50 am36 °FOvercast.8 mph100%29.65 "Hg4 mi
2:20 am36 °FPassing clouds.10 mph100%29.65 "Hg4 mi
1:50 am36 °FLow clouds.10 mph100%29.68 "Hg1 mi
1:20 am36 °FChilly.13 mph100%29.68 "Hg0 mi
12:50 am36 °FFog.10 mph100%29.68 "Hg0 mi
12:20 am36 °FFog.13 mph100%29.68 "Hg0 mi
11:50 pm
Sat, Feb 18
36 °FFog.12 mph100%29.68 "Hg0 mi
11:20 pm36 °FFog.12 mph100%29.71 "Hg0 mi
10:50 pm36 °FFog.10 mph100%29.71 "Hg0 mi
10:20 pm36 °FFog.9 mph100%29.71 "Hg0 mi
9:50 pm36 °FFog.8 mph100%29.74 "Hg0 mi
9:20 pm36 °FFog.14 mph100%29.74 "Hg0 mi
8:50 pm36 °FFog.16 mph100%29.74 "Hg0 mi
8:20 pm36 °FFog.14 mph100%29.77 "Hg1 mi
7:50 pm36 °FDrizzle. Low clouds.14 mph100%29.80 "Hg2 mi
7:20 pm36 °FDrizzle. Low clouds.14 mph100%29.80 "Hg4 mi
6:50 pm36 °FLight rain. Low clouds.13 mph100%29.83 "Hg4 mi
6:20 pm36 °FLight rain. Mostly cloudy.12 mph93%29.83 "Hg4 mi
5:50 pm34 °FLight rain. Mostly cloudy.10 mph100%29.86 "Hg3 mi
5:20 pm32 °FLight snow. Passing clouds.9 mph100%29.86 "HgN/A
4:50 pm32 °FLight snow. Scattered clouds.7 mph100%29.89 "HgN/A
4:20 pm32 °FMostly cloudy.8 mph100%29.89 "Hg5 mi
3:50 pm32 °FFog.10 mph100%29.92 "Hg0 mi
3:20 pm32 °FIce fog.9 mph100%29.92 "Hg1 mi
Weather by CustomWeather, © 2017

See weather overviewHow to use our weather pages